Location: Ocean City
(38.3360°N, 75.0850°W)
Time: 10:41:30
(UTC-05:00)

deb Explorer IX - Pass Details

Date: 18 November 2019
Orbit: 546 x 1105 km, 38.8° (Epoch: 09 December)

Event Time Altitude Azimuth Distance (km) Brightness Sun altitude
Exits shadow 06:12:58 - 277° (W) 2,387 ? -6.6°
Reaches altitude 10° 06:13:38 10° 275° (W) 2,141 ? -6.5°
Maximum altitude 06:18:12 39° 207° (SSW) 940 ? -5.7°
Drops below altitude 10° 06:22:14 10° 138° (SE) 1,891 ? -4.9°
Sets 06:24:29 0° 130° (SE) 2,743 ? -4.5°
